LogID,LogEntryDate,LogEntryTime,LogEntrySeconds,01_LogMark,AFR,STFT,CurrentLTFT,IdleLTFT,CruiseLTFT,Load,O2Sensor2,IPW,AFRMAP,LoadTiming,TimingAdv,KnockSum,RPM,Baro,MAP,Boost,WGDC_Active,MAF,IDC,InVVTtarget,APP,ExVVTtarget,InVVTactual,ExVVTactual,TPS,IAT,WGDCCorr,Speed,Battery,ECT,MAT,MAPCalcs,IMAPCalcs,MAFCalcs,ChosenCalc,Custom
1,2024-06-28,04:56:51.79514,0.27215,0,0,0,-12.5,-12.5,-3.125,12.5,,1.3,,12.5,40,0,3523.4375,15.08392496,3.2805546,-11.80337036,0,1.76472,3.81705729166667,10,,0,9.375,0,15.2941176470588,73.4,0,52.206,,181.4,93.2,14.0625,0,12.5,12.5,
2,2024-06-28,04:56:51.85765,0.33844,0,10.6,0,-12.5,-12.5,-3.125,12.5,,1.3,,12.5,40,0,3515.625,15.08392496,3.2805546,-11.80337036,0,1.76472,3.80859375,10,,0,9.375,0,15.2941176470588,73.4,0,52.206,,181.4,93.2,14.0625,0,12.5,12.5,
3,2024-06-28,04:56:51.90452,0.38717,0,10.6,0,-12.5,-12.5,-3.125,12.5,,1.3,,12.5,40,0,3515.625,15.08392496,3.2805546,-11.80337036,0,1.745112,3.80859375,10,,0,9.375,0,15.2941176470588,73.4,0,52.206,,181.4,93.2,14.0625,0,10.9375,12.5,
4,2024-06-28,04:56:51.96706,0.44594,0,10.7,0,-12.5,-12.5,-3.125,12.5,,1.3,,12.5,40,0,3515.625,15.08392496,3.2805546,-11.80337036,0,1.745112,3.80859375,10,,0,9.53125,-0.15625,15.2941176470588,73.4,0,52.206,,181.4,93.2,14.0625,0,12.5,12.5,
5,2024-06-28,04:56:52.04519,0.53378,0,10.7,0,-12.5,-12.5,-3.125,12.5,,1.3,,12.5,40,0,3500,15.08392496,3.2805546,-11.80337036,0,1.725504,3.79166666666667,10,,0,9.53125,-0.15625,15.2941176470588,73.4,0,52.206,,181.4,93.2,14.0625,0,10.9375,12.5,
6,2024-06-28,04:56:52.07643,0.56457,0,10.7,0,-12.5,-12.5,-3.125,12.5,,1.3,,12.5,40,0,3500,15.08392496,3.2805546,-11.80337036,0,1.725504,3.79166666666667,10,,0,9.375,0,15.2941176470588,73.4,0,50.963,,181.4,93.2,14.0625,0,14.0625,12.5,
7,2024-06-28,04:56:52.15452,0.6441,0,10.6,0,-12.5,-12.5,-3.125,12.5,,1.3,,12.5,40,0,3484.375,15.08392496,3.2805546,-11.80337036,0,1.705896,3.77473958333333,10,,0,9.375,0,15.2941176470588,73.4,0,50.963,,181.4,93.2,14.0625,0,14.0625,12.5,
8,2024-06-28,04:56:52.21702,0.69511,0,10.6,0,-12.5,-12.5,-3.125,12.5,,1.3,,12.5,40,0,3492.1875,15.08392496,3.2805546,-11.80337036,0,1.705896,3.783203125,10,,0,9.375,0,15.2941176470588,73.4,0,50.963,,181.4,93.2,14.0625,0,12.5,12.5,
9,2024-06-28,04:56:52.23267,0.71886,0,10.6,0,-12.5,-12.5,-3.125,12.5,,1.3,,12.5,40,0,3492.1875,15.08392496,3.2805546,-11.80337036,0,1.705896,3.783203125,10,,0,9.375,0,15.2941176470588,73.4,0,50.963,,181.4,93.2,14.0625,0,10.9375,12.5,
10,2024-06-28,04:56:52.27955,0.76961,0,10.6,0,-12.5,-12.5,-3.125,12.5,,1.3,,12.5,40,0,3484.375,15.08392496,3.2805546,-11.80337036,0,1.705896,3.77473958333333,10,,0,9.375,0,15.2941176470588,73.4,0,50.963,,181.4,93.2,14.0625,0,14.0625,10.9375,
11,2024-06-28,04:56:52.37327,0.86352,0,10.6,0,-12.5,-12.5,-3.125,10.9375,,1.2,,10.9375,40,0,3476.5625,15.08392496,3.2805546,-11.80337036,0,1.686288,3.4765625,10,,0,9.375,0,15.2941176470588,73.4,0,50.963,,181.4,93.2,14.0625,0,12.5,12.5,
12,2024-06-28,04:56:52.46704,0.94661,0,10.6,0,-12.5,-12.5,-3.125,12.5,,1.3,,12.5,40,0,3468.75,15.08392496,3.2805546,-11.80337036,0,1.686288,3.7578125,10,,0,9.375,0,15.2941176470588,73.4,0,50.963,,181.4,93.2,14.0625,0,10.9375,12.5,
13,2024-06-28,04:56:52.52956,1.0133,0,10.6,0,-12.5,-12.5,-3.125,12.5,,1.3,,12.5,40,0,3460.9375,15.08392496,3.2805546,-11.80337036,0,1.647072,3.74934895833333,10,,0,9.375,0,15.2941176470588,73.4,0,50.963,,181.4,93.2,14.0625,0,10.9375,12.5,
14,2024-06-28,04:56:52.57640,1.05548,0,10.6,0,-12.5,-12.5,-3.125,12.5,,1.3,,12.5,40,0,3453.125,15.08392496,3.2805546,-11.80337036,0,1.647072,3.74088541666667,10,,0,9.375,0,15.2941176470588,73.4,0,50.963,,181.4,93.2,14.0625,0,14.0625,12.5,
15,2024-06-28,04:56:52.63889,1.12015,0,10.6,0,-12.5,-12.5,-3.125,12.5,,1.3,,12.5,40,0,3460.9375,15.08392496,3.2805546,-11.80337036,0,1.784328,3.74934895833333,10,,0,9.375,0,15.2941176470588,73.4,0,49.72,,183.2,93.2,14.0625,0,14.0625,12.5,
16,2024-06-28,04:56:52.68578,1.17735,0,10.6,0,-12.5,-12.5,-3.125,12.5,,1.3,,12.5,40,0,3453.125,15.08392496,3.2805546,-11.80337036,0,1.784328,3.74088541666667,10,,0,9.375,0.15625,15.2941176470588,73.4,0,49.72,,183.2,93.2,14.0625,0,12.5,14.0625,
17,2024-06-28,04:56:52.79515,1.27907,0,10.5,0,-12.5,-12.5,-3.125,14.0625,,1.3,,14.0625,40,0,3453.125,15.08392496,3.3770415,-11.70688346,0,1.76472,3.74088541666667,10,,0,9.375,0.15625,15.2941176470588,73.4,0,49.72,,183.2,93.2,14.0625,0,14.0625,14.0625,
18,2024-06-28,04:56:52.84202,1.32759,0,10.5,0,-12.5,-12.5,-3.125,14.0625,,1.3,,14.0625,40,0,3437.5,15.08392496,3.3770415,-11.70688346,0,1.76472,3.72395833333333,10,,0,9.375,0.15625,15.2941176470588,73.4,0,49.72,,183.2,93.2,14.0625,0,14.0625,14.0625,
19,2024-06-28,04:56:52.90452,1.3943,0,10.5,0,-12.5,-12.5,-3.125,14.0625,,1.3,,14.0625,40,0,3429.6875,15.08392496,3.3770415,-11.70688346,0,1.745112,3.71549479166667,10,,0,9.375,0.15625,15.2941176470588,73.4,0,49.72,,183.2,93.2,14.0625,0,10.9375,14.0625,
20,2024-06-28,04:56:52.93578,1.42327,0,10.4,0,-12.5,-12.5,-3.125,14.0625,,1.3,,14.0625,40,0,3429.6875,15.08392496,3.3770415,-11.70688346,0,1.745112,3.71549479166667,10,,0,9.375,0.15625,15.2941176470588,73.4,0,49.72,,183.2,93.2,14.0625,0,14.0625,14.0625,
21,2024-06-28,04:56:53.02952,1.51093,0,10.4,0,-12.5,-12.5,-3.125,12.5,,1.3,,12.5,40,0,3437.5,15.08392496,3.3770415,-11.70688346,0,1.647072,3.72395833333333,10,,0,9.375,0.15625,15.2941176470588,73.4,0,49.72,,183.2,93.2,14.0625,0,14.0625,12.5,
22,2024-06-28,04:56:53.06077,1.53746,0,10.6,0,-12.5,-12.5,-3.125,12.5,,1.3,,12.5,40,0,3437.5,15.08392496,3.3770415,-11.70688346,0,1.647072,3.72395833333333,10,,0,9.375,0.15625,15.2941176470588,73.4,0,49.72,,183.2,93.2,14.0625,0,10.9375,12.5,
23,2024-06-28,04:56:53.09202,1.57846,0,10.6,0,-12.5,-12.5,-3.125,12.5,,1.3,,12.5,40,0,3437.5,15.08392496,3.3770415,-11.70688346,0,1.705896,3.72395833333333,10,,0,9.375,0.15625,15.2941176470588,73.4,0,49.72,,183.2,93.2,14.0625,0,14.0625,12.5,
24,2024-06-28,04:56:53.13889,1.62941,0,10.6,0,-12.5,-12.5,-3.125,12.5,,1.3,,12.5,40,0,3429.6875,15.08392496,3.3770415,-11.70688346,0,1.705896,3.71549479166667,10,,0,9.375,0,15.2941176470588,73.4,0,49.72,,183.2,93.2,14.0625,0,12.5,12.5,
25,2024-06-28,04:56:53.20144,1.69234,0,10.6,0,-12.5,-12.5,-3.125,12.5,,1.3,,12.5,40,0,3406.25,15.08392496,3.3770415,-11.70688346,0,1.745112,3.69010416666667,10,,0,9.375,0,15.2941176470588,73.4,0,49.72,,183.2,93.2,14.0625,0,14.0625,12.5,
26,2024-06-28,04:56:53.26393,1.75418,0,10.7,0,-12.5,-12.5,-3.125,12.5,,1.3,,12.5,40,0,3414.0625,15.08392496,3.3770415,-11.70688346,0,1.745112,3.69856770833333,10,,0,9.375,0.15625,15.2941176470588,73.4,0,49.72,,183.2,93.2,14.0625,0,9.375,10.9375,
27,2024-06-28,04:56:53.37327,1.85911,0,10.7,0,-12.5,-12.5,-3.125,12.5,,1.2,,10.9375,40,0,3421.875,15.08392496,3.2805546,-11.80337036,0,1.725504,3.421875,10,,0,9.375,0.15625,15.2941176470588,73.4,0,49.72,,183.2,95,14.0625,0,10.9375,12.5,
28,2024-06-28,04:56:53.45143,1.93947,0,10.7,0,-12.5,-12.5,-3.125,12.5,,1.3,,12.5,40,0,3406.25,15.08392496,3.2805546,-11.80337036,0,1.725504,3.69010416666667,10,,0,9.375,0,15.2941176470588,73.4,0,49.72,,183.2,95,14.0625,0,12.5,10.9375,
29,2024-06-28,04:56:53.49827,1.97538,0,10.7,0,-12.5,-12.5,-3.125,12.5,,1.3,,12.5,40,0,3406.25,15.08392496,3.2805546,-11.80337036,0,1.66668,3.69010416666667,10,,0,9.375,0,15.2941176470588,73.4,0,49.72,,183.2,95,14.0625,0,12.5,10.9375,
30,2024-06-28,04:56:53.56080,2.04799,0,10.7,0,-12.5,-12.5,-3.125,10.9375,,1.3,,12.5,40,0,3398.4375,15.08392496,3.2805546,-11.80337036,0,1.66668,3.681640625,10,,0,9.375,0.15625,15.2941176470588,73.4,0,49.72,,183.2,95,14.0625,0,10.9375,12.5,
31,2024-06-28,04:56:53.63890,2.12748,0,10.7,0,-12.5,-12.5,-3.125,12.5,,1.3,,12.5,40,0,3390.625,15.08392496,3.2805546,-11.80337036,0,1.725504,3.67317708333333,10,,0,9.375,0.15625,15.2941176470588,73.4,0,49.72,,183.2,95,14.0625,0,12.5,10.9375,
32,2024-06-28,04:56:53.71705,2.20171,0,10.5,0,-12.5,-12.5,-3.125,10.9375,,1.3,,10.9375,40,0,3390.625,15.08392496,3.2805546,-11.80337036,0,1.725504,3.67317708333333,10,,0,9.375,0,15.2941176470588,73.4,0,49.72,,183.2,95,14.0625,0,12.5,10.9375,
33,2024-06-28,04:56:53.76389,2.25591,0,10.5,0,-12.5,-12.5,-3.125,10.9375,,1.3,,10.9375,40,0,3390.625,15.08392496,3.3770415,-11.70688346,0,1.647072,3.67317708333333,10,,0,9.375,0,15.2941176470588,73.4,0,49.72,,183.2,95,14.0625,0,12.5,10.9375,
34,2024-06-28,04:56:53.84202,2.31865,0,10.4,0,-12.5,-12.5,-3.125,10.9375,,1.3,,10.9375,40,0,3382.8125,15.08392496,3.3770415,-11.70688346,0,1.647072,3.66471354166667,10,,0,9.375,0.15625,15.2941176470588,73.4,0,49.72,,183.2,95,14.0625,0,9.375,10.9375,
35,2024-06-28,04:56:53.93577,2.41379,0,10.4,0,-12.5,-12.5,-3.125,12.5,,1.3,,12.5,40,0,3375,15.08392496,3.3770415,-11.70688346,0,1.725504,3.65625,10,,0,9.375,0.15625,15.2941176470588,73.4,0,49.72,,183.2,95,14.0625,0,14.0625,12.5,
36,2024-06-28,04:56:53.95140,2.44317,0,10.4,0,-12.5,-12.5,-3.125,12.5,,1.3,,12.5,40,0,3375,15.08392496,3.3770415,-11.70688346,0,1.725504,3.65625,10,,0,9.375,0,15.2941176470588,73.4,0,48.477,,183.2,95,14.0625,0,12.5,10.9375,
37,2024-06-28,04:56:54.04517,2.52186,0,10.5,0,-12.5,-12.5,-3.125,12.5,,1.2,,10.9375,40,0,3359.375,15.08392496,3.3770415,-11.70688346,0,1.725504,3.359375,10,,0,9.375,0,15.2941176470588,73.4,0,48.477,,183.2,95,14.0625,0,10.9375,10.9375,
38,2024-06-28,04:56:54.12327,2.60106,0,10.5,0,-12.5,-12.5,-3.125,12.5,,1.3,,12.5,40,0,3367.1875,15.08392496,3.3770415,-11.70688346,0,1.725504,3.64778645833333,10,,0,9.375,0.3125,15.2941176470588,73.4,0,48.477,,183.2,95,14.0625,0,10.9375,12.5,
39,2024-06-28,04:56:54.17015,2.65515,0,10.4,0,-12.5,-12.5,-3.125,12.5,,1.3,,12.5,40,0,3343.75,15.08392496,3.3770415,-11.70688346,0,1.725504,3.62239583333333,10,,0,9.375,0.3125,15.2941176470588,73.4,0,48.477,,183.2,95,14.0625,0,12.5,12.5,
40,2024-06-28,04:56:54.23265,2.72121,0,10.4,0,-12.5,-12.5,-3.125,12.5,,1.3,,12.5,40,0,3351.5625,15.08392496,3.3770415,-11.70688346,0,1.725504,3.630859375,10,,0,9.53125,0.3125,15.2941176470588,73.4,0,48.477,,183.2,95,14.0625,0,14.0625,12.5,
41,2024-06-28,04:56:54.32642,2.80623,0,10.6,0,-12.5,-12.5,-3.125,14.0625,,1.3,,12.5,40,0,3343.75,15.08392496,3.3770415,-11.70688346,0,1.705896,3.62239583333333,10,,0,9.53125,0.3125,15.2941176470588,73.4,0,48.477,,183.2,95,14.0625,0,14.0625,12.5,
42,2024-06-28,04:56:54.35765,2.84469,0,10.6,0,-12.5,-12.5,-3.125,12.5,,1.3,,12.5,40,0,3343.75,15.08392496,3.3770415,-11.70688346,0,1.705896,3.62239583333333,10,,0,9.53125,0.3125,15.2941176470588,73.4,0,48.477,,183.2,95,14.0625,0,10.9375,12.5,
43,2024-06-28,04:56:54.38889,2.8762,0,10.6,0,-12.5,-12.5,-3.125,12.5,,1.3,,12.5,40,0,3343.75,15.08392496,3.3770415,-11.70688346,0,1.745112,3.62239583333333,10,,0,9.53125,0.3125,15.2941176470588,73.4,0,48.477,,183.2,95,14.0625,0,14.0625,12.5,
44,2024-06-28,04:56:54.43577,2.926,0,10.6,0,-12.5,-12.5,-3.125,12.5,,1.3,,12.5,40,0,3335.9375,15.08392496,3.3770415,-11.70688346,0,1.745112,3.61393229166667,10,,0,9.53125,0.3125,15.2941176470588,73.4,0,48.477,,183.2,95,14.0625,0,14.0625,12.5,
45,2024-06-28,04:56:54.51390,2.99677,0,10.5,0,-12.5,-12.5,-3.125,12.5,,1.3,,12.5,40,0,3328.125,15.08392496,3.3770415,-11.70688346,0,1.784328,3.60546875,10,,0,9.53125,0.3125,15.2941176470588,73.4,0,48.477,,183.2,95,14.0625,0,12.5,12.5,
46,2024-06-28,04:56:54.56080,3.0501,0,10.5,0,-12.5,-12.5,-3.125,12.5,,1.3,,12.5,40,0,3335.9375,15.08392496,3.3770415,-11.70688346,0,1.784328,3.61393229166667,10,,0,9.53125,0.15625,15.2941176470588,73.4,0,48.477,,183.2,95,14.0625,0,14.0625,12.5,
47,2024-06-28,04:56:54.67015,3.16114,0,10.4,0,-12.5,-12.5,-3.125,12.5,,0,,12.5,-10,0,3312.5,15.08392496,3.0875808,-11.99634416,0,1.549032,0,10,,0,9.53125,0.15625,14.1176470588235,73.4,0,48.477,,183.2,95,12.5,0,9.375,10.9375,
48,2024-06-28,04:56:54.74827,3.23037,0,10.4,0,-12.5,-12.5,-3.125,10.9375,,0,,9.375,-10,0,3320.3125,15.08392496,3.0875808,-11.99634416,0,1.549032,0,10,,0,9.53125,0.3125,14.1176470588235,73.4,0,48.477,,183.2,95,12.5,0,7.8125,9.375,
49,2024-06-28,04:56:54.84206,3.32899,0,10.3,0,-12.5,-12.5,-3.125,9.375,,0,,9.375,-10,0,3265.625,15.08392496,3.1840677,-11.89985726,0,1.647072,0,10,,0,9.53125,0.3125,14.1176470588235,73.4,0,48.477,,183.2,95,10.9375,0,9.375,9.375,
50,2024-06-28,04:56:54.88891,3.37947,0,10.3,0,-12.5,-12.5,-3.125,9.375,,0,,9.375,-10,0,3179.6875,15.08392496,3.1840677,-11.89985726,0,1.647072,0,10,,0,9.6875,0.3125,14.1176470588235,73.4,0,48.477,,183.2,95,10.9375,0,9.375,9.375,
51,2024-06-28,04:56:54.96703,3.45326,0,10.3,0,-12.5,-12.5,-3.125,9.375,,0,,9.375,-10,0,3101.5625,15.08392496,3.2805546,-11.80337036,0,1.66668,0,10,,0,9.6875,0.3125,14.1176470588235,73.4,0,48.477,,183.2,95,10.9375,0,12.5,10.9375,
52,2024-06-28,04:56:55.07643,3.55647,0,10.3,0,-12.5,-12.5,-3.125,10.9375,,1.3,,10.9375,-5,0,2960.9375,15.08392496,3.2805546,-11.80337036,0,1.66668,3.20768229166667,16.875,,-8.125,9.84375,0.15625,14.1176470588235,73.4,0,48.477,,183.2,95,67.1875,0,129.6875,59.375,
53,2024-06-28,04:56:55.20140,3.68819,0,10.9,0,-12.5,-12.5,-3.125,68.75,,2.6,,71.875,28,0,3125,15.08392496,13.7976267,-1.28629826,0,2.607864,6.77083333333333,16.875,,-8.125,9.84375,0.15625,20,73.4,0,48.477,,183.2,95,64.0625,57.8125,28.125,59.375,
54,2024-06-28,04:56:55.31077,3.79926,0,11.9,0,-12.5,-12.5,-3.125,54.6875,,1.8,,48.4375,39,0,3726.5625,15.08392496,13.7976267,-1.28629826,0,2.607864,5.58984375,15.625,,-6.25,18.59375,-12.8125,20,73.4,0,48.477,,183.2,95,31.25,0,23.4375,28.125,
55,2024-06-28,04:56:55.45145,3.94337,0,11.9,-1.3671875,-3.125,-12.5,-3.125,25,,1.4,,23.4375,40,0,3882.8125,15.08392496,4.3419105,-10.74201446,0,1.901976,4.52994791666667,15.625,,-6.25,18.59375,-12.8125,20,73.4,0,48.477,,183.2,95,20.3125,0,15.625,18.75,
56,2024-06-28,04:56:55.56077,4.04495,0,14.4,-1.3671875,-3.125,-12.5,-3.125,18.75,,1.4,,18.75,40,0,3921.875,15.08392496,4.3419105,-10.74201446,0,1.901976,4.57552083333333,10,,0,12.96875,-0.3125,16.4705882352941,71.6,0,48.477,,183.2,95,18.75,0,14.0625,15.625,
57,2024-06-28,04:56:55.68577,4.16576,0,14.9,-1.3671875,-3.125,-12.5,-3.125,15.625,,1.3,,15.625,40,0,3984.375,15.08392496,3.4735284,-11.61039656,0,1.86276,4.31640625,10,,0,12.96875,-0.3125,16.4705882352941,71.6,0,48.477,,183.2,95,15.625,0,12.5,14.0625,
58,2024-06-28,04:56:55.77956,4.26549,0,16.2,-1.3671875,-3.125,-12.5,-3.125,14.0625,,1.3,,14.0625,0,0,4085.9375,15.08392496,3.4735284,-11.61039656,0,1.86276,4.42643229166667,10,,0,9.6875,-0.46875,16.4705882352941,71.6,0,48.477,,183.2,95,14.0625,0,10.9375,10.9375,
59,2024-06-28,04:56:55.90452,4.39279,0,16.2,-1.3671875,-3.125,-12.5,-3.125,10.9375,,0,,10.9375,4,0,4078.125,15.08392496,3.1840677,-11.89985726,0,1.803936,0,10,,0,9.6875,-0.46875,15.6862745098039,71.6,0,48.477,,183.2,95,15.625,0,12.5,10.9375,
60,2024-06-28,04:56:55.98268,4.45995,0,12.2,-1.3671875,-3.125,-12.5,-3.125,10.9375,,0,,10.9375,9,0,4085.9375,15.08392496,3.1840677,-11.89985726,0,1.803936,0,10,,0,9.84375,-0.46875,15.6862745098039,71.6,0,48.477,,183.2,95,15.625,0,12.5,10.9375,
61,2024-06-28,04:56:56.09205,4.57741,0,11.4,0,-12.5,-12.5,-3.125,12.5,,0,,12.5,14,0,4117.1875,15.08392496,3.1840677,-11.89985726,0,1.86276,0,10,,0,9.84375,-0.46875,15.6862745098039,71.6,0,48.477,,183.2,95,15.625,0,10.9375,12.5,
62,2024-06-28,04:56:56.13890,4.62334,0,11.4,0,-12.5,-12.5,-3.125,12.5,,0,,12.5,17,0,4125,15.08392496,3.1840677,-11.89985726,0,1.86276,0,10,,0,9.84375,-0.46875,15.6862745098039,71.6,0,48.477,,183.2,95,15.625,0,12.5,12.5,
63,2024-06-28,04:56:56.20143,4.69207,0,12.3,0,-12.5,-12.5,-3.125,12.5,,0,,12.5,19,0,4148.4375,15.08392496,3.1840677,-11.89985726,0,1.705896,0,10,,0,9.84375,-0.46875,15.6862745098039,71.6,0,47.234,,183.2,95,15.625,0,12.5,12.5,
64,2024-06-28,04:56:56.26394,4.74507,0,12.3,0,-12.5,-12.5,-3.125,12.5,,0,,12.5,22,0,4171.875,15.08392496,3.1840677,-11.89985726,0,1.705896,0,10,,0,9.6875,-0.625,15.6862745098039,71.6,0,47.234,,183.2,95,15.625,0,10.9375,10.9375,
65,2024-06-28,04:56:56.32640,4.80805,0,12.3,0,-12.5,-12.5,-3.125,12.5,,0,,12.5,25,0,4179.6875,15.08392496,3.1840677,-11.89985726,0,1.843152,0,10,,0,9.6875,-0.625,15.6862745098039,71.6,0,47.234,,183.2,95,15.625,0,10.9375,10.9375,
66,2024-06-28,04:56:56.40452,4.89551,0,18.5,0,-12.5,-12.5,-3.125,10.9375,,0,,10.9375,29,0,4171.875,15.08392496,3.1840677,-11.89985726,0,1.843152,0,10,,0,9.84375,-0.46875,15.6862745098039,71.6,0,47.234,,183.2,95,15.625,0,12.5,10.9375,
67,2024-06-28,04:56:56.56081,5.04528,0,18.5,0,-12.5,-12.5,-3.125,10.9375,,0,,10.9375,32,0,4156.25,15.08392496,3.2805546,-11.80337036,0,1.86276,0,10,,0,9.84375,-0.46875,15.6862745098039,71.6,0,47.234,,183.2,95,15.625,0,12.5,14.0625,
68,2024-06-28,04:56:56.70142,5.1821,0,18.5,0,-12.5,-12.5,-3.125,14.0625,,1.3,,14.0625,40,0,4140.625,15.08392496,3.2805546,-11.80337036,0,1.86276,4.48567708333333,10,,0,9.84375,-0.46875,16.8627450980392,71.6,0,47.234,,183.2,95,17.1875,0,15.625,15.625,
69,2024-06-28,04:56:56.81079,5.28755,0,18.5,0,-12.5,-12.5,-3.125,15.625,,1.3,,15.625,0,0,4140.625,15.08392496,3.6665022,-11.41742276,0,1.86276,4.48567708333333,10,,0,9.84375,-0.46875,16.8627450980392,71.6,0,45.991,,183.2,95,17.1875,0,12.5,14.0625,
70,2024-06-28,04:56:56.88890,5.38031,0,18.5,-0.5859375,-3.125,-12.5,-3.125,15.625,,1.3,,15.625,6,0,4132.8125,15.08392496,3.6665022,-11.41742276,0,1.86276,4.47721354166667,10,,0,9.84375,-0.46875,16.8627450980392,71.6,0,45.991,,183.2,95,17.1875,0,17.1875,15.625,
71,2024-06-28,04:56:56.99827,5.48714,0,18.5,-0.5859375,-3.125,-12.5,-3.125,15.625,,1.4,,15.625,9,0,4093.75,15.08392496,3.4735284,-11.61039656,0,1.882368,4.77604166666667,10,,0,9.84375,-0.46875,16.8627450980392,71.6,0,45.991,,183.2,95,15.625,0,15.625,15.625,
72,2024-06-28,04:56:57.07640,5.56717,0,18.5,-0.5859375,-3.125,-12.5,-3.125,15.625,,1.3,,15.625,14,0,4085.9375,15.08392496,3.4735284,-11.61039656,0,1.882368,4.42643229166667,10,,0,9.84375,-0.3125,16.8627450980392,71.6,0,45.991,,183.2,95,15.625,0,12.5,14.0625,
73,2024-06-28,04:56:57.17015,5.66024,0,14.3,-0.9765625,-3.125,-12.5,-3.125,15.625,,1.3,,15.625,40,0,4101.5625,15.08392496,3.4735284,-11.61039656,0,1.86276,4.443359375,10,,0,9.84375,-0.3125,16.8627450980392,71.6,0,45.991,,183.2,95,17.1875,0,12.5,14.0625,
74,2024-06-28,04:56:57.24832,5.72603,0,14.3,-0.9765625,-3.125,-12.5,-3.125,15.625,,1.3,,14.0625,40,0,4085.9375,15.08392496,3.4735284,-11.61039656,0,1.86276,4.42643229166667,10,,0,9.6875,-0.46875,16.8627450980392,71.6,0,45.991,,183.2,95,17.1875,0,15.625,15.625,
75,2024-06-28,04:56:57.34202,5.82272,0,15,-0.9765625,-3.125,-12.5,-3.125,15.625,,1.3,,15.625,40,0,4070.3125,15.08392496,3.5700153,-11.51390966,0,1.882368,4.40950520833333,10,,0,9.6875,-0.46875,16.8627450980392,71.6,0,45.991,,183.2,95,17.1875,0,15.625,15.625,
76,2024-06-28,04:56:57.42014,5.8999,0,15,-2.34375,-3.125,-12.5,-3.125,15.625,,1.3,,15.625,40,0,4062.5,15.08392496,3.5700153,-11.51390966,0,1.882368,4.40104166666667,10,,0,9.6875,-0.3125,16.8627450980392,71.6,0,45.991,,183.2,95,15.625,0,14.0625,14.0625,
77,2024-06-28,04:56:57.52952,6.01109,0,12,-2.34375,-3.125,-12.5,-3.125,14.0625,,1.3,,14.0625,40,0,4046.875,15.08392496,3.3770415,-11.70688346,0,1.823544,4.38411458333333,10,,0,9.6875,-0.3125,16.4705882352941,71.6,0,45.991,,183.2,95,15.625,0,15.625,14.0625,
78,2024-06-28,04:56:57.56077,6.04116,0,11.4,-2.34375,-3.125,-12.5,-3.125,14.0625,,1.3,,14.0625,40,0,4046.875,15.08392496,3.3770415,-11.70688346,0,1.823544,4.38411458333333,10,,0,9.6875,-0.3125,16.4705882352941,71.6,0,44.748,,183.2,95,15.625,0,12.5,14.0625,
79,2024-06-28,04:56:57.60764,6.09589,0,11.4,-3.3203125,-3.125,-12.5,-3.125,14.0625,,1.3,,14.0625,40,0,4046.875,15.08392496,3.3770415,-11.70688346,0,1.901976,4.38411458333333,10,,0,9.6875,-0.3125,16.4705882352941,71.6,0,44.748,,183.2,95,15.625,0,14.0625,14.0625,
80,2024-06-28,04:56:57.63890,6.12603,0,11.4,-3.3203125,-3.125,-12.5,-3.125,14.0625,,1.3,,14.0625,40,0,4046.875,15.08392496,3.3770415,-11.70688346,0,1.901976,4.38411458333333,10,,0,9.6875,-0.46875,16.4705882352941,71.6,0,44.748,,183.2,95,15.625,0,14.0625,14.0625,
81,2024-06-28,04:56:57.68578,6.16451,0,11.4,-3.3203125,-3.125,-12.5,-3.125,14.0625,,1.3,,14.0625,40,0,4046.875,15.08392496,3.3770415,-11.70688346,0,1.86276,4.38411458333333,10,,0,9.6875,-0.46875,16.4705882352941,71.6,0,44.748,,183.2,95,15.625,0,14.0625,14.0625,
82,2024-06-28,04:56:57.76393,6.24549,0,11.1,-4.1015625,-3.125,-12.5,-3.125,14.0625,,1.3,,14.0625,40,0,4031.25,15.08392496,3.3770415,-11.70688346,0,1.86276,4.3671875,10,,0,9.6875,-0.3125,16.4705882352941,71.6,0,44.748,,183.2,95,15.625,0,14.0625,14.0625,
83,2024-06-28,04:56:57.82640,6.30862,0,11.1,-4.1015625,-3.125,-12.5,-3.125,14.0625,,1.3,,14.0625,40,0,4023.4375,15.08392496,3.3770415,-11.70688346,0,1.784328,4.35872395833333,10,,0,9.6875,-0.3125,16.4705882352941,71.6,0,44.748,,183.2,95,15.625,0,14.0625,14.0625,
84,2024-06-28,04:56:57.84202,6.32859,0,11.1,-4.1015625,-3.125,-12.5,-3.125,14.0625,,1.3,,14.0625,40,0,4023.4375,15.08392496,3.3770415,-11.70688346,0,1.784328,4.35872395833333,10,,0,9.6875,-0.3125,16.4705882352941,71.6,0,44.748,,183.2,95,15.625,0,12.5,14.0625,
85,2024-06-28,04:56:57.95140,6.44092,0,10.9,-4.6875,-3.125,-12.5,-3.125,14.0625,,1.3,,14.0625,40,0,4007.8125,15.08392496,3.2805546,-11.80337036,0,1.86276,4.341796875,10,,0,9.6875,-0.3125,16.4705882352941,71.6,0,44.748,,183.2,95,15.625,0,12.5,14.0625,
86,2024-06-28,04:56:58.01390,6.49709,0,10.9,-4.6875,-3.125,-12.5,-3.125,14.0625,,1.3,,14.0625,40,0,3992.1875,15.08392496,3.2805546,-11.80337036,0,1.86276,4.32486979166667,10,,0,9.84375,-0.46875,16.078431372549,71.6,0,44.748,,183.2,95,15.625,0,10.9375,14.0625,
87,2024-06-28,04:56:58.07639,6.56528,0,10.8,-4.6875,-3.125,-12.5,-3.125,14.0625,,1.3,,14.0625,40,0,3984.375,15.08392496,3.2805546,-11.80337036,0,1.843152,4.31640625,10,,0,9.84375,-0.46875,16.078431372549,71.6,0,44.748,,183.2,95,15.625,0,15.625,14.0625,
88,2024-06-28,04:56:58.15452,6.63649,0,10.8,-5.859375,-3.125,-12.5,-3.125,14.0625,,1.3,,14.0625,40,0,3992.1875,15.08392496,3.2805546,-11.80337036,0,1.843152,4.32486979166667,10,,0,9.6875,-0.3125,16.078431372549,71.6,0,44.748,,183.2,95,15.625,0,14.0625,14.0625,
89,2024-06-28,04:56:58.21703,6.70795,0,10.7,-5.859375,-3.125,-12.5,-3.125,14.0625,,1.3,,14.0625,40,0,3968.75,15.08392496,3.2805546,-11.80337036,0,1.921584,4.29947916666667,10,,0,9.6875,-0.3125,16.078431372549,71.6,0,44.748,,183.2,95,15.625,0,15.625,14.0625,
90,2024-06-28,04:56:58.27952,6.76199,0,10.7,-5.859375,-3.125,-12.5,-3.125,14.0625,,1.3,,14.0625,40,0,3960.9375,15.08392496,3.2805546,-11.80337036,0,1.921584,4.291015625,10,,0,9.84375,-0.3125,16.078431372549,71.6,0,43.505,,183.2,95,15.625,0,14.0625,14.0625,
91,2024-06-28,04:56:58.35768,6.83991,0,10.7,-6.8359375,-3.125,-12.5,-3.125,14.0625,,1.3,,14.0625,40,0,3945.3125,15.08392496,3.2805546,-11.80337036,0,1.843152,4.27408854166667,10,,0,9.84375,-0.3125,16.078431372549,71.6,0,43.505,,183.2,95,15.625,0,15.625,14.0625,
92,2024-06-28,04:56:58.42015,6.89996,0,10.9,-6.8359375,-3.125,-12.5,-3.125,14.0625,,1.3,,14.0625,40,0,3929.6875,15.08392496,3.2805546,-11.80337036,0,1.843152,4.25716145833333,10,,0,9.84375,-0.3125,15.6862745098039,71.6,0,43.505,,183.2,95,14.0625,0,12.5,14.0625,
93,2024-06-28,04:56:58.46707,6.94986,0,10.9,-6.8359375,-3.125,-12.5,-3.125,14.0625,,1.3,,14.0625,40,0,3929.6875,15.08392496,3.1840677,-11.89985726,0,1.882368,4.25716145833333,10,,0,9.84375,-0.3125,15.6862745098039,71.6,0,43.505,,183.2,95,14.0625,0,12.5,12.5,
94,2024-06-28,04:56:58.57640,7.05945,0,10.8,-7.8125,-12.5,-12.5,-3.125,14.0625,,1.2,,12.5,40,0,3890.625,15.08392496,3.1840677,-11.89985726,0,1.882368,3.890625,10,,0,9.84375,-0.15625,15.6862745098039,71.6,0,43.505,,183.2,95,14.0625,0,12.5,12.5,
95,2024-06-28,04:56:58.65452,7.14318,0,10.8,-7.8125,-12.5,-12.5,-3.125,14.0625,,1.3,,12.5,40,0,3867.1875,15.08392496,3.1840677,-11.89985726,0,1.76472,4.189453125,10,,0,9.84375,-0.15625,15.6862745098039,71.6,0,43.505,,183.2,95,14.0625,0,12.5,12.5,
96,2024-06-28,04:56:58.73265,7.21436,0,10.8,-7.8125,-12.5,-12.5,-3.125,12.5,,1.3,,12.5,40,0,3859.375,15.08392496,3.1840677,-11.89985726,0,1.76472,4.18098958333333,10,,0,10,-0.3125,15.6862745098039,71.6,0,43.505,,183.2,95,14.0625,0,10.9375,12.5,